Home   Weather   Caracas   Past weeks
Flag for Venezuela

Past Weather in Caracas, Venezuela — Yesterday and Last 2 Weeks

Now
81 °F

Drizzle. Partly sunny.


Feels Like: 85 °F
Forecast: 75 / 67 °F
Wind: No wind

Location: Caracas / Maiquetia Aerop. Intl. Simon Bolivar

Current Time: Apr 24, 2019 at 12:46:42 pm

Latest Report: Apr 24, 2019 at 10:00 am


Visibility: N/A

Pressure: 29.89 "Hg (27.06 "Hg at 875m altitude)

Humidity: 74%

Dew Point: 72 °F

Location of CaracasLocation

Past Weather in Caracas — Graph

°F

Caracas Temperature Yesterday

Maximum temperature yesterday: 82 °F (at 2:00 pm)
Minimum temperature yesterday: 77 °F (at 12:00 am)
Average temperature yesterday: 80 °F

High & Low Weather Summary for the Past Weeks

 TemperatureHumidityPressure
High86 °F (Apr 19, 1:30 pm)100% (Apr 10, 11:00 pm)30.01 "Hg (Apr 10, 11:00 pm)
Low72 °F (Apr 10, 9:00 pm)21% (Apr 15, 6:00 pm)29.83 "Hg (Apr 9, 10:00 pm)
Average78 °F80%29.90 "Hg
* Reported Apr 9 10:00 am — Apr 24 10:00 am, Caracas. Weather by CustomWeather, © 2019

Note: Actual official high and low records may vary slightly from our data, if they occured in-between our weather recording intervals... More about our weather records

Advertising

Caracas Weather History for the Previous 24 Hours

Scroll right to see more
 ConditionsComfort  
Time TempWeatherWind HumidityBarometerVisibility
10:00 am
Wed, Apr 24
81 °FDrizzle. Partly sunny.No wind74%29.89 "HgN/A
9:00 am77 °FPartly sunny.No wind74%29.86 "HgN/A
8:00 am79 °FScattered clouds.3 mph84%29.89 "HgN/A
7:00 am81 °FPartly sunny.No wind74%29.86 "HgN/A
6:00 am81 °FPartly sunny.No wind70%29.86 "HgN/A
5:00 am81 °FPassing clouds.No wind70%29.89 "HgN/A
4:00 am81 °FPassing clouds.No wind74%29.89 "HgN/A
3:00 am81 °FPassing clouds.No wind74%29.86 "HgN/A
2:00 am81 °FPassing clouds.No wind74%29.89 "HgN/A
1:00 am82 °FPassing clouds.3 mph70%29.86 "HgN/A
12:00 am81 °FPassing clouds.2 mph74%29.86 "HgN/A
11:00 pm
Tue, Apr 23
81 °FPassing clouds.2 mph74%29.89 "HgN/A
10:00 pm81 °FPassing clouds.2 mph74%29.89 "HgN/A
9:00 pm79 °FPassing clouds.3 mph79%29.86 "HgN/A
8:00 pm81 °FPassing clouds.3 mph74%29.86 "HgN/A
7:00 pm79 °FPassing clouds.3 mph74%29.89 "HgN/A
6:00 pm81 °FPartly sunny.3 mph70%29.89 "HgN/A
5:00 pm81 °FPartly sunny.5 mph74%29.89 "HgN/A
4:00 pm82 °FPartly sunny.6 mph70%29.89 "HgN/A
3:00 pm81 °FPartly sunny.6 mph79%29.92 "HgN/A
2:00 pm82 °FPartly sunny.5 mph74%29.92 "HgN/A
1:00 pm81 °FPartly sunny.5 mph79%29.89 "HgN/A
12:00 pm81 °FPartly sunny.5 mph79%29.92 "HgN/A
Weather by CustomWeather, © 2019

See weather overview